Time,TemperatureF,DewpointF,PressureIn,WindDirection,WindDirectionDegrees,WindSpeedMPH,WindSpeedGustMPH,Humidity,HourlyPrecipIn,Conditions,Clouds,dailyrainin,SoftwareType,DateUTC
2013-01-20 00:02:00,1.6,28.0,30.31,WNW,294,9.0,15.0,25,-99.99,,,-99.99,meteohub,2013-01-20 06:02:00,
2013-01-20 00:07:00,1.6,28.0,30.34,WNW,291,9.0,15.0,25,-99.99,,,-99.99,meteohub,2013-01-20 06:07:00,
2013-01-20 00:12:00,1.6,28.0,30.34,West,264,8.0,15.0,25,-99.99,,,-99.99,meteohub,2013-01-20 06:12:00,
2013-01-20 00:17:00,1.6,28.0,30.34,West,271,6.0,15.0,25,-99.99,,,-99.99,meteohub,2013-01-20 06:17:00,
2013-01-20 00:23:00,1.6,28.2,30.34,SW,223,6.0,15.0,25,-99.99,,,-99.99,meteohub,2013-01-20 06:23:00,
2013-01-20 00:28:00,1.6,28.4,30.34,West,273,8.0,15.0,25,-99.99,,,-99.99,meteohub,2013-01-20 06:28:00,
2013-01-20 00:33:00,1.6,28.4,30.34,NW,305,8.0,17.0,25,-99.99,,,-99.99,meteohub,2013-01-20 06:33:00,
2013-01-20 00:39:00,1.4,28.4,30.34,WSW,250,5.0,17.0,25,-99.99,,,-99.99,meteohub,2013-01-20 06:39:00,
2013-01-20 00:44:00,1.2,28.6,30.34,West,262,6.0,17.0,25,-99.99,,,-99.99,meteohub,2013-01-20 06:44:00,
2013-01-20 00:49:00,1.2,28.8,30.31,NW,304,8.0,11.0,25,-99.99,,,-99.99,meteohub,2013-01-20 06:49:00,
2013-01-20 00:54:00,1.0,28.8,30.31,West,264,4.0,11.0,25,-99.99,,,-99.99,meteohub,2013-01-20 06:54:00,
2013-01-20 01:00:00,1.0,28.8,30.31,West,267,6.0,15.0,25,-99.99,,,-99.99,meteohub,2013-01-20 07:00:00,
2013-01-20 01:05:00,0.9,28.8,30.34,WNW,282,10.0,15.0,25,-99.99,,,-99.99,meteohub,2013-01-20 07:05:00,
2013-01-20 01:10:00,0.7,28.8,30.34,WNW,291,8.0,15.0,25,-99.99,,,-99.99,meteohub,2013-01-20 07:10:00,
2013-01-20 01:16:00,0.7,28.8,30.34,West,269,5.0,13.0,25,-99.99,,,-99.99,meteohub,2013-01-20 07:16:00,
2013-01-20 01:21:00,0.5,28.8,30.34,West,265,11.0,13.0,25,-99.99,,,-99.99,meteohub,2013-01-20 07:21:00,
2013-01-20 01:26:00,0.5,28.8,30.34,WNW,289,12.0,14.0,25,-99.99,,,-99.99,meteohub,2013-01-20 07:26:00,
2013-01-20 01:32:00,0.3,28.8,30.34,West,279,8.0,14.0,25,-99.99,,,-99.99,meteohub,2013-01-20 07:32:00,
2013-01-20 01:37:00,0.3,28.8,30.34,West,276,8.0,17.0,25,-99.99,,,-99.99,meteohub,2013-01-20 07:37:00,
2013-01-20 01:42:00,0.3,28.6,30.34,West,271,6.0,17.0,25,-99.99,,,-99.99,meteohub,2013-01-20 07:42:00,
2013-01-20 01:48:00,0.3,28.8,30.34,WNW,283,7.0,17.0,25,-99.99,,,-99.99,meteohub,2013-01-20 07:48:00,
2013-01-20 01:53:00,0.1,28.6,30.37,WNW,288,8.0,17.0,25,-99.99,,,-99.99,meteohub,2013-01-20 07:53:00,
2013-01-20 01:58:00,0.1,28.6,30.37,WNW,293,8.0,11.0,25,-99.99,,,-99.99,meteohub,2013-01-20 07:58:00,
2013-01-20 02:03:00,0.0,28.6,30.37,WSW,251,8.0,11.0,25,-99.99,,,-99.99,meteohub,2013-01-20 08:03:00,
2013-01-20 02:09:00,0.0,28.6,30.37,West,279,9.0,13.0,25,-99.99,,,-99.99,meteohub,2013-01-20 08:09:00,
2013-01-20 02:14:00,0.0,28.6,30.37,West,272,8.0,13.0,25,-99.99,,,-99.99,meteohub,2013-01-20 08:14:00,
2013-01-20 02:19:00,0.0,28.4,30.37,West,268,10.0,13.0,25,-99.99,,,-99.99,meteohub,2013-01-20 08:19:00,
2013-01-20 02:25:00,0.0,28.6,30.37,NNW,332,7.0,13.0,25,-99.99,,,-99.99,meteohub,2013-01-20 08:25:00,
2013-01-20 02:30:00,-0.2,28.4,30.37,WNW,293,6.0,13.0,25,-99.99,,,-99.99,meteohub,2013-01-20 08:30:00,
2013-01-20 02:35:00,0.0,28.4,30.37,West,277,5.0,13.0,25,-99.99,,,-99.99,meteohub,2013-01-20 08:35:00,
2013-01-20 02:41:00,-0.2,28.6,30.37,SW,233,5.0,13.0,25,-99.99,,,-99.99,meteohub,2013-01-20 08:41:00,
2013-01-20 02:46:00,-0.4,28.4,30.37,West,279,6.0,11.0,25,-99.99,,,-99.99,meteohub,2013-01-20 08:46:00,
2013-01-20 02:51:00,-0.4,28.4,30.40,WNW,283,8.0,11.0,25,-99.99,,,-99.99,meteohub,2013-01-20 08:51:00,
2013-01-20 02:56:00,-0.6,28.4,30.40,WNW,282,5.0,11.0,25,-99.99,,,-99.99,meteohub,2013-01-20 08:56:00,
2013-01-20 03:02:00,-0.6,28.4,30.40,WNW,287,10.0,11.0,25,-99.99,,,-99.99,meteohub,2013-01-20 09:02:00,
2013-01-20 03:07:00,-0.6,28.4,30.40,West,275,5.0,11.0,25,-99.99,,,-99.99,meteohub,2013-01-20 09:07:00,
2013-01-20 03:12:00,-0.6,27.5,30.40,West,268,4.0,11.0,24,-99.99,,,-99.99,meteohub,2013-01-20 09:12:00,
2013-01-20 03:17:00,-0.6,27.5,30.40,SW,228,6.0,11.0,24,-99.99,,,-99.99,meteohub,2013-01-20 09:17:00,
2013-01-20 03:22:00,-0.6,27.5,30.40,WNW,290,6.0,11.0,24,-99.99,,,-99.99,meteohub,2013-01-20 09:22:00,
2013-01-20 03:28:00,-0.8,27.5,30.40,WNW,282,8.0,15.0,24,-99.99,,,-99.99,meteohub,2013-01-20 09:28:00,
2013-01-20 03:33:00,-0.8,27.5,30.40,WNW,290,5.0,15.0,24,-99.99,,,-99.99,meteohub,2013-01-20 09:33:00,
2013-01-20 03:38:00,-0.8,27.5,30.40,West,260,5.0,15.0,24,-99.99,,,-99.99,meteohub,2013-01-20 09:38:00,
2013-01-20 03:44:00,-0.9,27.5,30.40,West,268,5.0,15.0,24,-99.99,,,-99.99,meteohub,2013-01-20 09:44:00,
2013-01-20 03:49:00,-0.9,27.5,30.40,WNW,287,8.0,11.0,24,-99.99,,,-99.99,meteohub,2013-01-20 09:49:00,
2013-01-20 03:54:00,-0.9,27.5,30.40,WNW,289,12.0,12.0,24,-99.99,,,-99.99,meteohub,2013-01-20 09:54:00,
2013-01-20 03:59:00,-1.1,27.5,30.40,WNW,288,9.0,13.0,24,-99.99,,,-99.99,meteohub,2013-01-20 09:59:00,
2013-01-20 04:05:00,-1.1,27.3,30.43,WSW,249,6.0,13.0,24,-99.99,,,-99.99,meteohub,2013-01-20 10:05:00,
2013-01-20 04:10:00,-1.3,27.3,30.43,West,261,8.0,14.0,24,-99.99,,,-99.99,meteohub,2013-01-20 10:10:00,
2013-01-20 04:15:00,-1.3,27.3,30.43,West,279,8.0,11.0,24,-99.99,,,-99.99,meteohub,2013-01-20 10:15:00,
2013-01-20 04:21:00,-1.3,27.3,30.43,West,281,8.0,11.0,24,-99.99,,,-99.99,meteohub,2013-01-20 10:21:00,
2013-01-20 04:26:00,-1.3,27.3,30.43,WSW,257,3.0,11.0,24,-99.99,,,-99.99,meteohub,2013-01-20 10:26:00,
2013-01-20 04:32:00,-1.3,27.3,30.43,West,269,3.0,11.0,24,-99.99,,,-99.99,meteohub,2013-01-20 10:32:00,
2013-01-20 04:37:00,-1.3,27.3,30.43,WSW,244,3.0,11.0,24,-99.99,,,-99.99,meteohub,2013-01-20 10:37:00,
2013-01-20 04:42:00,-1.3,27.3,30.43,West,263,4.0,11.0,24,-99.99,,,-99.99,meteohub,2013-01-20 10:42:00,
2013-01-20 04:47:00,-1.5,27.1,30.43,SW,236,8.0,9.0,24,-99.99,,,-99.99,meteohub,2013-01-20 10:47:00,
2013-01-20 04:53:00,-1.5,27.1,30.43,West,269,4.0,9.0,24,-99.99,,,-99.99,meteohub,2013-01-20 10:53:00,
2013-01-20 04:58:00,-1.5,27.3,30.43,West,262,6.0,9.0,24,-99.99,,,-99.99,meteohub,2013-01-20 10:58:00,
2013-01-20 05:03:00,-1.7,27.1,30.43,West,262,4.0,9.0,24,-99.99,,,-99.99,meteohub,2013-01-20 11:03:00,
2013-01-20 05:09:00,-1.7,27.3,30.43,WSW,250,4.0,9.0,24,-99.99,,,-99.99,meteohub,2013-01-20 11:09:00,
2013-01-20 05:14:00,-1.7,27.3,30.43,West,275,6.0,9.0,24,-99.99,,,-99.99,meteohub,2013-01-20 11:14:00,
2013-01-20 05:19:00,-1.7,27.3,30.43,WSW,251,5.0,9.0,24,-99.99,,,-99.99,meteohub,2013-01-20 11:19:00,
2013-01-20 05:24:00,-1.8,27.3,30.43,West,281,8.0,9.0,24,-99.99,,,-99.99,meteohub,2013-01-20 11:24:00,
2013-01-20 05:30:00,-1.8,27.3,30.43,NW,304,4.0,10.0,24,-99.99,,,-99.99,meteohub,2013-01-20 11:30:00,
2013-01-20 05:35:00,-1.7,27.1,30.43,West,266,3.0,10.0,24,-99.99,,,-99.99,meteohub,2013-01-20 11:35:00,
2013-01-20 05:40:00,-1.7,27.3,30.43,WNW,292,10.0,10.0,24,-99.99,,,-99.99,meteohub,2013-01-20 11:40:00,
2013-01-20 05:45:00,-1.7,27.3,30.43,WNW,299,6.0,8.0,24,-99.99,,,-99.99,meteohub,2013-01-20 11:45:00,
2013-01-20 05:51:00,-1.8,27.3,30.43,WNW,299,10.0,10.0,24,-99.99,,,-99.99,meteohub,2013-01-20 11:51:00,
2013-01-20 05:56:00,-1.8,27.3,30.43,WNW,284,11.0,14.0,24,-99.99,,,-99.99,meteohub,2013-01-20 11:56:00,
2013-01-20 06:01:00,-1.8,27.3,30.43,WNW,285,3.0,14.0,24,-99.99,,,-99.99,meteohub,2013-01-20 12:01:00,
2013-01-20 06:07:00,-1.8,27.3,30.43,WSW,248,6.0,14.0,24,-99.99,,,-99.99,meteohub,2013-01-20 12:07:00,
2013-01-20 06:12:00,-1.8,27.3,30.43,WNW,287,6.0,11.0,24,-99.99,,,-99.99,meteohub,2013-01-20 12:12:00,
2013-01-20 06:18:00,-1.8,27.3,30.43,West,265,8.0,11.0,24,-99.99,,,-99.99,meteohub,2013-01-20 12:18:00,
2013-01-20 06:23:00,-1.8,27.3,30.43,West,274,3.0,11.0,24,-99.99,,,-99.99,meteohub,2013-01-20 12:23:00,
2013-01-20 06:28:00,-1.8,27.3,30.43,WSW,250,3.0,9.0,24,-99.99,,,-99.99,meteohub,2013-01-20 12:28:00,
2013-01-20 06:34:00,-1.8,27.1,30.43,WSW,257,6.0,9.0,24,-99.99,,,-99.99,meteohub,2013-01-20 12:34:00,
2013-01-20 06:39:00,-1.8,27.3,30.43,WNW,294,4.0,9.0,24,-99.99,,,-99.99,meteohub,2013-01-20 12:39:00,
2013-01-20 06:44:00,-1.8,27.3,30.43,WNW,284,5.0,9.0,24,-99.99,,,-99.99,meteohub,2013-01-20 12:44:00,
2013-01-20 06:49:00,-1.8,27.3,30.43,West,277,6.0,9.0,24,-99.99,,,-99.99,meteohub,2013-01-20 12:49:00,
2013-01-20 06:55:00,-1.8,27.3,30.43,WNW,293,6.0,9.0,24,-99.99,,,-99.99,meteohub,2013-01-20 12:55:00,
2013-01-20 07:00:00,-1.8,27.3,30.43,West,266,4.0,8.0,24,-99.99,,,-99.99,meteohub,2013-01-20 13:00:00,
2013-01-20 07:05:00,-1.8,27.3,30.43,WNW,284,4.0,8.0,24,-99.99,,,-99.99,meteohub,2013-01-20 13:05:00,
2013-01-20 07:11:00,-1.8,27.3,30.43,WNW,297,4.0,8.0,24,-99.99,,,-99.99,meteohub,2013-01-20 13:11:00,
2013-01-20 07:16:00,-1.8,27.5,30.43,West,262,6.0,6.0,24,-99.99,,,-99.99,meteohub,2013-01-20 13:16:00,
2013-01-20 07:21:00,-1.8,27.3,30.46,West,270,6.0,6.0,24,-99.99,,,-99.99,meteohub,2013-01-20 13:21:00,
2013-01-20 07:27:00,-1.8,27.5,30.46,WNW,284,5.0,6.0,24,-99.99,,,-99.99,meteohub,2013-01-20 13:27:00,
2013-01-20 07:32:00,-1.8,27.5,30.46,NW,308,3.0,8.0,24,-99.99,,,-99.99,meteohub,2013-01-20 13:32:00,
2013-01-20 07:37:00,-1.8,27.3,30.43,West,268,3.0,8.0,24,-99.99,,,-99.99,meteohub,2013-01-20 13:37:00,
2013-01-20 07:42:00,-1.8,27.5,30.43,NNW,340,4.0,8.0,24,-99.99,,,-99.99,meteohub,2013-01-20 13:42:00,
2013-01-20 07:48:00,-1.8,27.5,30.43,NW,304,3.0,8.0,24,-99.99,,,-99.99,meteohub,2013-01-20 13:48:00,
2013-01-20 07:53:00,-1.8,27.5,30.43,NW,307,4.0,8.0,24,-99.99,,,-99.99,meteohub,2013-01-20 13:53:00,
2013-01-20 07:59:00,-1.8,27.5,30.43,West,274,6.0,8.0,24,-99.99,,,-99.99,meteohub,2013-01-20 13:59:00,
2013-01-20 08:04:00,-1.8,27.5,30.43,West,268,4.0,8.0,24,-99.99,,,-99.99,meteohub,2013-01-20 14:04:00,
2013-01-20 08:09:00,-1.8,27.5,30.43,SW,221,3.0,8.0,24,-99.99,,,-99.99,meteohub,2013-01-20 14:09:00,
2013-01-20 08:15:00,-1.8,27.5,30.43,West,269,4.0,7.0,24,-99.99,,,-99.99,meteohub,2013-01-20 14:15:00,
2013-01-20 08:20:00,-1.7,27.5,30.46,WNW,284,4.0,7.0,24,-99.99,,,-99.99,meteohub,2013-01-20 14:20:00,
2013-01-20 08:25:00,-1.7,27.5,30.46,WNW,292,2.0,7.0,24,-99.99,,,-99.99,meteohub,2013-01-20 14:25:00,
2013-01-20 08:31:00,-1.5,27.5,30.46,WSW,256,5.0,8.0,24,-99.99,,,-99.99,meteohub,2013-01-20 14:31:00,
2013-01-20 08:36:00,-1.3,27.5,30.46,West,263,3.0,8.0,24,-99.99,,,-99.99,meteohub,2013-01-20 14:36:00,
2013-01-20 08:41:00,-1.3,27.5,30.46,West,271,6.0,6.0,24,-99.99,,,-99.99,meteohub,2013-01-20 14:41:00,
2013-01-20 08:47:00,-1.3,27.5,30.46,West,280,5.0,6.0,24,-99.99,,,-99.99,meteohub,2013-01-20 14:47:00,
2013-01-20 08:52:00,-1.1,27.5,30.46,West,261,4.0,8.0,24,-99.99,,,-99.99,meteohub,2013-01-20 14:52:00,
2013-01-20 08:57:00,-0.9,27.5,30.46,West,275,4.0,8.0,24,-99.99,,,-99.99,meteohub,2013-01-20 14:57:00,
2013-01-20 09:02:00,-0.6,27.5,30.46,WNW,292,4.0,7.0,24,-99.99,,,-99.99,meteohub,2013-01-20 15:02:00,
2013-01-20 09:08:00,-0.4,27.5,30.49,WSW,244,3.0,7.0,24,-99.99,,,-99.99,meteohub,2013-01-20 15:08:00,
2013-01-20 09:13:00,0.0,27.7,30.49,WSW,250,4.0,8.0,24,-99.99,,,-99.99,meteohub,2013-01-20 15:13:00,
2013-01-20 09:18:00,0.1,27.7,30.49,WNW,283,5.0,8.0,24,-99.99,,,-99.99,meteohub,2013-01-20 15:18:00,
2013-01-20 09:24:00,0.1,27.7,30.49,WSW,238,3.0,8.0,24,-99.99,,,-99.99,meteohub,2013-01-20 15:24:00,
2013-01-20 09:29:00,0.3,27.7,30.49,WNW,293,5.0,8.0,24,-99.99,,,-99.99,meteohub,2013-01-20 15:29:00,
2013-01-20 09:34:00,0.3,27.7,30.46,WSW,246,4.0,8.0,24,-99.99,,,-99.99,meteohub,2013-01-20 15:34:00,
2013-01-20 09:40:00,0.7,27.7,30.46,West,260,8.0,9.0,24,-99.99,,,-99.99,meteohub,2013-01-20 15:40:00,
2013-01-20 09:45:00,0.9,27.7,30.46,WNW,287,5.0,9.0,24,-99.99,,,-99.99,meteohub,2013-01-20 15:45:00,
2013-01-20 09:50:00,1.2,28.0,30.49,West,278,3.0,9.0,24,-99.99,,,-99.99,meteohub,2013-01-20 15:50:00,
2013-01-20 09:55:00,1.6,27.9,30.49,WNW,292,3.0,9.0,24,-99.99,,,-99.99,meteohub,2013-01-20 15:55:00,
2013-01-20 10:01:00,1.6,27.9,30.49,West,267,4.0,9.0,24,-99.99,,,-99.99,meteohub,2013-01-20 16:01:00,
2013-01-20 10:06:00,1.6,28.0,30.49,WSW,246,4.0,9.0,24,-99.99,,,-99.99,meteohub,2013-01-20 16:06:00,
2013-01-20 10:11:00,1.6,27.9,30.49,West,278,4.0,11.0,24,-99.99,,,-99.99,meteohub,2013-01-20 16:11:00,
2013-01-20 10:17:00,1.9,27.9,30.49,West,274,4.0,11.0,24,-99.99,,,-99.99,meteohub,2013-01-20 16:17:00,
2013-01-20 10:22:00,1.9,27.9,30.49,WSW,238,4.0,10.0,24,-99.99,,,-99.99,meteohub,2013-01-20 16:22:00,
2013-01-20 10:27:00,2.1,27.9,30.49,WSW,258,5.0,10.0,24,-99.99,,,-99.99,meteohub,2013-01-20 16:27:00,
2013-01-20 10:32:00,2.3,27.9,30.49,WSW,250,3.0,10.0,24,-99.99,,,-99.99,meteohub,2013-01-20 16:32:00,
2013-01-20 10:38:00,2.5,27.9,30.49,WSW,256,5.0,9.0,24,-99.99,,,-99.99,meteohub,2013-01-20 16:38:00,
2013-01-20 10:43:00,2.5,27.7,30.49,West,259,5.0,11.0,24,-99.99,,,-99.99,meteohub,2013-01-20 16:43:00,
2013-01-20 10:48:00,2.3,27.7,30.49,WSW,248,8.0,12.0,24,-99.99,,,-99.99,meteohub,2013-01-20 16:48:00,
2013-01-20 10:54:00,2.5,27.7,30.49,West,275,6.0,12.0,24,-99.99,,,-99.99,meteohub,2013-01-20 16:54:00,
2013-01-20 10:59:00,2.7,27.7,30.49,West,265,6.0,11.0,24,-99.99,,,-99.99,meteohub,2013-01-20 16:59:00,
2013-01-20 11:04:00,2.5,27.7,30.49,West,281,8.0,11.0,24,-99.99,,,-99.99,meteohub,2013-01-20 17:04:00,
2013-01-20 11:09:00,2.8,27.7,30.49,WSW,250,6.0,11.0,24,-99.99,,,-99.99,meteohub,2013-01-20 17:09:00,
2013-01-20 11:15:00,3.2,27.7,30.49,West,265,6.0,11.0,24,-99.99,,,-99.99,meteohub,2013-01-20 17:15:00,
2013-01-20 11:20:00,3.0,27.5,30.49,West,272,4.0,11.0,24,-99.99,,,-99.99,meteohub,2013-01-20 17:20:00,
2013-01-20 11:25:00,3.2,27.5,30.49,West,265,6.0,11.0,24,-99.99,,,-99.99,meteohub,2013-01-20 17:25:00,
2013-01-20 11:31:00,3.4,27.5,30.49,West,264,8.0,11.0,24,-99.99,,,-99.99,meteohub,2013-01-20 17:31:00,
2013-01-20 11:36:00,3.4,27.5,30.49,West,274,5.0,11.0,24,-99.99,,,-99.99,meteohub,2013-01-20 17:36:00,
2013-01-20 11:41:00,3.6,27.5,30.49,West,280,8.0,11.0,24,-99.99,,,-99.99,meteohub,2013-01-20 17:41:00,
2013-01-20 11:47:00,3.7,27.5,30.49,West,262,5.0,10.0,24,-99.99,,,-99.99,meteohub,2013-01-20 17:47:00,
2013-01-20 11:52:00,3.9,27.5,30.46,West,278,4.0,10.0,24,-99.99,,,-99.99,meteohub,2013-01-20 17:52:00,
2013-01-20 11:57:00,4.5,27.7,30.46,West,270,6.0,9.0,24,-99.99,,,-99.99,meteohub,2013-01-20 17:57:00,
2013-01-20 12:02:00,4.5,27.7,30.46,West,259,8.0,8.0,24,-99.99,,,-99.99,meteohub,2013-01-20 18:02:00,
2013-01-20 12:08:00,4.6,27.9,30.46,NW,318,8.0,8.0,24,-99.99,,,-99.99,meteohub,2013-01-20 18:08:00,
2013-01-20 12:13:00,4.5,27.9,30.46,WNW,291,5.0,11.0,24,-99.99,,,-99.99,meteohub,2013-01-20 18:13:00,
2013-01-20 12:18:00,4.3,27.9,30.46,West,275,4.0,12.0,24,-99.99,,,-99.99,meteohub,2013-01-20 18:18:00,
2013-01-20 12:24:00,4.5,28.0,30.46,West,275,8.0,12.0,24,-99.99,,,-99.99,meteohub,2013-01-20 18:24:00,
2013-01-20 12:29:00,4.6,28.0,30.46,WSW,248,5.0,12.0,24,-99.99,,,-99.99,meteohub,2013-01-20 18:29:00,
2013-01-20 12:34:00,5.0,28.2,30.46,WSW,244,4.0,11.0,24,-99.99,,,-99.99,meteohub,2013-01-20 18:34:00,
2013-01-20 12:39:00,5.5,28.2,30.46,SW,232,4.0,11.0,24,-99.99,,,-99.99,meteohub,2013-01-20 18:39:00,
2013-01-20 12:45:00,6.1,28.2,30.46,WNW,283,4.0,10.0,24,-99.99,,,-99.99,meteohub,2013-01-20 18:45:00,
2013-01-20 12:50:00,6.3,27.3,30.46,SW,217,6.0,11.0,23,-99.99,,,-99.99,meteohub,2013-01-20 18:50:00,
2013-01-20 12:55:00,6.1,27.3,30.46,West,274,7.0,11.0,23,-99.99,,,-99.99,meteohub,2013-01-20 18:55:00,
2013-01-20 13:01:00,6.1,27.3,30.46,West,271,5.0,13.0,23,-99.99,,,-99.99,meteohub,2013-01-20 19:01:00,
2013-01-20 13:06:00,6.3,27.5,30.46,SSW,210,3.0,13.0,23,-99.99,,,-99.99,meteohub,2013-01-20 19:06:00,
2013-01-20 13:11:00,7.0,27.5,30.46,West,266,7.0,13.0,23,-99.99,,,-99.99,meteohub,2013-01-20 19:11:00,
2013-01-20 13:16:00,6.8,27.5,30.46,WSW,253,10.0,10.0,23,-99.99,,,-99.99,meteohub,2013-01-20 19:16:00,
2013-01-20 13:22:00,6.4,27.7,30.43,West,279,4.0,10.0,23,-99.99,,,-99.99,meteohub,2013-01-20 19:22:00,
2013-01-20 13:27:00,6.6,27.7,30.43,WSW,248,6.0,10.0,23,-99.99,,,-99.99,meteohub,2013-01-20 19:27:00,
2013-01-20 13:32:00,6.4,27.7,30.43,WSW,252,5.0,10.0,23,-99.99,,,-99.99,meteohub,2013-01-20 19:32:00,
2013-01-20 13:38:00,6.4,27.7,30.43,West,265,6.0,10.0,23,-99.99,,,-99.99,meteohub,2013-01-20 19:38:00,
2013-01-20 13:43:00,6.3,27.7,30.43,West,266,11.0,11.0,23,-99.99,,,-99.99,meteohub,2013-01-20 19:43:00,
2013-01-20 13:48:00,6.3,27.7,30.43,SW,230,6.0,11.0,23,-99.99,,,-99.99,meteohub,2013-01-20 19:48:00,
2013-01-20 13:53:00,6.6,27.7,30.40,SW,234,8.0,11.0,23,-99.99,,,-99.99,meteohub,2013-01-20 19:53:00,
2013-01-20 13:59:00,6.6,27.7,30.40,WNW,297,8.0,11.0,23,-99.99,,,-99.99,meteohub,2013-01-20 19:59:00,
2013-01-20 14:04:00,6.8,27.7,30.40,WSW,248,6.0,11.0,23,-99.99,,,-99.99,meteohub,2013-01-20 20:04:00,
2013-01-20 14:09:00,7.0,28.8,30.40,WSW,243,8.0,11.0,24,-99.99,,,-99.99,meteohub,2013-01-20 20:09:00,
2013-01-20 14:15:00,6.8,28.8,30.40,West,275,3.0,11.0,24,-99.99,,,-99.99,meteohub,2013-01-20 20:15:00,
2013-01-20 14:20:00,6.8,28.8,30.40,SW,220,6.0,9.0,24,-99.99,,,-99.99,meteohub,2013-01-20 20:20:00,
2013-01-20 14:25:00,6.8,28.8,30.40,SW,218,3.0,9.0,24,-99.99,,,-99.99,meteohub,2013-01-20 20:25:00,
2013-01-20 14:30:00,6.8,28.8,30.40,SW,235,9.0,9.0,24,-99.99,,,-99.99,meteohub,2013-01-20 20:30:00,
2013-01-20 14:36:00,6.6,28.8,30.40,West,266,6.0,9.0,24,-99.99,,,-99.99,meteohub,2013-01-20 20:36:00,
2013-01-20 14:41:00,6.8,28.8,30.40,SW,233,7.0,10.0,24,-99.99,,,-99.99,meteohub,2013-01-20 20:41:00,
2013-01-20 14:46:00,6.6,28.8,30.40,West,281,8.0,10.0,24,-99.99,,,-99.99,meteohub,2013-01-20 20:46:00,
2013-01-20 14:51:00,6.4,28.8,30.40,West,275,8.0,10.0,24,-99.99,,,-99.99,meteohub,2013-01-20 20:51:00,
2013-01-20 14:56:00,6.3,28.8,30.40,SW,226,4.0,11.0,24,-99.99,,,-99.99,meteohub,2013-01-20 20:56:00,
2013-01-20 15:02:00,6.3,28.6,30.40,West,273,6.0,11.0,24,-99.99,,,-99.99,meteohub,2013-01-20 21:02:00,
2013-01-20 15:07:00,6.4,28.6,30.40,WSW,242,7.0,11.0,24,-99.99,,,-99.99,meteohub,2013-01-20 21:07:00,
2013-01-20 15:12:00,6.3,28.6,30.40,West,268,11.0,11.0,24,-99.99,,,-99.99,meteohub,2013-01-20 21:12:00,
2013-01-20 15:18:00,6.3,28.6,30.40,West,271,6.0,11.0,24,-99.99,,,-99.99,meteohub,2013-01-20 21:18:00,
2013-01-20 15:23:00,6.1,27.7,30.40,West,280,5.0,11.0,23,-99.99,,,-99.99,meteohub,2013-01-20 21:23:00,
2013-01-20 15:28:00,6.3,27.7,30.40,WSW,249,5.0,11.0,23,-99.99,,,-99.99,meteohub,2013-01-20 21:28:00,
2013-01-20 15:33:00,6.4,27.7,30.40,SW,229,6.0,11.0,23,-99.99,,,-99.99,meteohub,2013-01-20 21:33:00,
2013-01-20 15:38:00,6.3,27.7,30.40,South,190,6.0,10.0,23,-99.99,,,-99.99,meteohub,2013-01-20 21:38:00,
2013-01-20 15:44:00,6.1,27.7,30.40,WSW,245,9.0,13.0,23,-99.99,,,-99.99,meteohub,2013-01-20 21:44:00,
2013-01-20 15:49:00,6.1,27.7,30.40,SW,220,6.0,13.0,23,-99.99,,,-99.99,meteohub,2013-01-20 21:49:00,
2013-01-20 15:54:00,6.1,27.7,30.40,West,263,5.0,11.0,23,-99.99,,,-99.99,meteohub,2013-01-20 21:54:00,
2013-01-20 15:59:00,6.1,27.5,30.40,West,279,8.0,13.0,23,-99.99,,,-99.99,meteohub,2013-01-20 21:59:00,
2013-01-20 16:05:00,6.1,27.5,30.40,SW,227,6.0,15.0,23,-99.99,,,-99.99,meteohub,2013-01-20 22:05:00,
2013-01-20 16:10:00,5.9,27.5,30.40,WSW,248,6.0,15.0,23,-99.99,,,-99.99,meteohub,2013-01-20 22:10:00,
2013-01-20 16:16:00,5.9,27.5,30.40,WNW,291,14.0,15.0,23,-99.99,,,-99.99,meteohub,2013-01-20 22:16:00,
2013-01-20 16:21:00,5.7,27.5,30.40,WNW,285,11.0,13.0,23,-99.99,,,-99.99,meteohub,2013-01-20 22:21:00,
2013-01-20 16:26:00,5.5,27.5,30.40,West,281,8.0,14.0,23,-99.99,,,-99.99,meteohub,2013-01-20 22:26:00,
2013-01-20 16:32:00,5.5,27.5,30.40,WSW,245,6.0,14.0,23,-99.99,,,-99.99,meteohub,2013-01-20 22:32:00,
2013-01-20 16:37:00,5.7,27.5,30.40,WNW,292,9.0,11.0,23,-99.99,,,-99.99,meteohub,2013-01-20 22:37:00,
2013-01-20 16:42:00,5.7,27.5,30.40,SW,223,4.0,11.0,23,-99.99,,,-99.99,meteohub,2013-01-20 22:42:00,
2013-01-20 16:48:00,5.7,27.5,30.40,West,280,6.0,10.0,23,-99.99,,,-99.99,meteohub,2013-01-20 22:48:00,
2013-01-20 16:53:00,5.9,27.5,30.40,WSW,242,8.0,10.0,23,-99.99,,,-99.99,meteohub,2013-01-20 22:53:00,
2013-01-20 16:59:00,5.9,27.5,30.40,WSW,238,6.0,9.0,23,-99.99,,,-99.99,meteohub,2013-01-20 22:59:00,
2013-01-20 17:04:00,5.9,27.5,30.40,WSW,245,6.0,11.0,23,-99.99,,,-99.99,meteohub,2013-01-20 23:04:00,
2013-01-20 17:09:00,5.9,27.3,30.40,SW,218,5.0,11.0,23,-99.99,,,-99.99,meteohub,2013-01-20 23:09:00,
2013-01-20 17:15:00,5.7,27.5,30.40,SW,234,6.0,11.0,23,-99.99,,,-99.99,meteohub,2013-01-20 23:15:00,
2013-01-20 17:20:00,5.7,27.3,30.37,West,281,6.0,11.0,23,-99.99,,,-99.99,meteohub,2013-01-20 23:20:00,
2013-01-20 17:25:00,5.5,27.3,30.37,WSW,244,8.0,10.0,23,-99.99,,,-99.99,meteohub,2013-01-20 23:25:00,
2013-01-20 17:30:00,5.5,27.5,30.37,WSW,257,6.0,10.0,23,-99.99,,,-99.99,meteohub,2013-01-20 23:30:00,
2013-01-20 17:35:00,5.4,27.5,30.40,West,264,3.0,8.0,23,-99.99,,,-99.99,meteohub,2013-01-20 23:35:00,
2013-01-20 17:40:00,5.4,27.5,30.40,WNW,286,6.0,11.0,23,-99.99,,,-99.99,meteohub,2013-01-20 23:40:00,
2013-01-20 17:46:00,5.4,27.5,30.40,SSW,203,4.0,11.0,23,-99.99,,,-99.99,meteohub,2013-01-20 23:46:00,
2013-01-20 17:51:00,5.4,27.5,30.37,WNW,285,6.0,11.0,23,-99.99,,,-99.99,meteohub,2013-01-20 23:51:00,
2013-01-20 17:56:00,5.2,27.5,30.37,WSW,237,4.0,9.0,23,-99.99,,,-99.99,meteohub,2013-01-20 23:56:00,
2013-01-20 18:02:00,5.2,27.5,30.37,SW,227,4.0,9.0,23,-99.99,,,-99.99,meteohub,2013-01-21 00:02:00,
2013-01-20 18:07:00,5.0,27.5,30.37,WSW,258,6.0,9.0,23,-99.99,,,-99.99,meteohub,2013-01-21 00:07:00,
2013-01-20 18:12:00,5.0,27.7,30.37,SW,236,3.0,8.0,23,-99.99,,,-99.99,meteohub,2013-01-21 00:12:00,
2013-01-20 18:17:00,5.0,27.5,30.37,WSW,241,4.0,8.0,23,-99.99,,,-99.99,meteohub,2013-01-21 00:17:00,
2013-01-20 18:22:00,5.0,27.7,30.37,WSW,241,6.0,8.0,23,-99.99,,,-99.99,meteohub,2013-01-21 00:22:00,
2013-01-20 18:28:00,5.0,27.7,30.37,WSW,238,4.0,6.0,23,-99.99,,,-99.99,meteohub,2013-01-21 00:28:00,
2013-01-20 18:33:00,5.0,27.5,30.37,WSW,243,6.0,8.0,23,-99.99,,,-99.99,meteohub,2013-01-21 00:33:00,
2013-01-20 18:38:00,5.0,27.7,30.37,WSW,253,5.0,8.0,23,-99.99,,,-99.99,meteohub,2013-01-21 00:38:00,
2013-01-20 18:43:00,5.0,27.7,30.37,SW,232,6.0,8.0,23,-99.99,,,-99.99,meteohub,2013-01-21 00:43:00,
2013-01-20 18:49:00,4.8,27.5,30.37,NNW,328,4.0,8.0,23,-99.99,,,-99.99,meteohub,2013-01-21 00:49:00,
2013-01-20 18:54:00,4.8,27.5,30.37,West,264,4.0,8.0,23,-99.99,,,-99.99,meteohub,2013-01-21 00:54:00,
2013-01-20 18:59:00,4.6,27.7,30.37,West,261,6.0,8.0,23,-99.99,,,-99.99,meteohub,2013-01-21 00:59:00,
2013-01-20 19:04:00,4.5,27.5,30.37,WNW,288,11.0,11.0,23,-99.99,,,-99.99,meteohub,2013-01-21 01:04:00,
2013-01-20 19:09:00,4.5,27.5,30.37,West,260,11.0,11.0,23,-99.99,,,-99.99,meteohub,2013-01-21 01:09:00,
2013-01-20 19:15:00,4.5,27.5,30.37,West,259,5.0,15.0,23,-99.99,,,-99.99,meteohub,2013-01-21 01:15:00,
2013-01-20 19:20:00,4.3,27.5,30.37,SW,230,6.0,15.0,23,-99.99,,,-99.99,meteohub,2013-01-21 01:20:00,
2013-01-20 19:25:00,4.1,27.5,30.37,West,267,4.0,11.0,23,-99.99,,,-99.99,meteohub,2013-01-21 01:25:00,
2013-01-20 19:31:00,3.9,27.3,30.37,WSW,258,6.0,11.0,23,-99.99,,,-99.99,meteohub,2013-01-21 01:31:00,
2013-01-20 19:36:00,3.7,27.3,30.37,WSW,237,6.0,13.0,23,-99.99,,,-99.99,meteohub,2013-01-21 01:36:00,
2013-01-20 19:42:00,3.6,28.2,30.37,WNW,288,11.0,13.0,24,-99.99,,,-99.99,meteohub,2013-01-21 01:42:00,
2013-01-20 19:47:00,3.2,28.2,30.37,NW,308,13.0,13.0,24,-99.99,,,-99.99,meteohub,2013-01-21 01:47:00,
2013-01-20 19:52:00,2.8,28.0,30.37,West,274,6.0,13.0,24,-99.99,,,-99.99,meteohub,2013-01-21 01:52:00,
2013-01-20 19:58:00,2.8,28.0,30.37,SW,222,4.0,13.0,24,-99.99,,,-99.99,meteohub,2013-01-21 01:58:00,
2013-01-20 20:03:00,2.5,28.0,30.37,WNW,301,6.0,14.0,24,-99.99,,,-99.99,meteohub,2013-01-21 02:03:00,
2013-01-20 20:08:00,2.5,27.9,30.37,West,275,6.0,14.0,24,-99.99,,,-99.99,meteohub,2013-01-21 02:08:00,
2013-01-20 20:14:00,2.1,27.9,30.37,West,262,8.0,17.0,24,-99.99,,,-99.99,meteohub,2013-01-21 02:14:00,
2013-01-20 20:19:00,1.9,27.9,30.37,WSW,241,4.0,17.0,24,-99.99,,,-99.99,meteohub,2013-01-21 02:19:00,
2013-01-20 20:24:00,1.9,27.7,30.37,West,266,10.0,11.0,24,-99.99,,,-99.99,meteohub,2013-01-21 02:24:00,
2013-01-20 20:29:00,1.8,27.7,30.37,WNW,293,8.0,11.0,24,-99.99,,,-99.99,meteohub,2013-01-21 02:29:00,
2013-01-20 20:35:00,1.6,27.5,30.37,WSW,247,3.0,12.0,24,-99.99,,,-99.99,meteohub,2013-01-21 02:35:00,
2013-01-20 20:40:00,1.4,27.5,30.37,SSW,212,6.0,12.0,24,-99.99,,,-99.99,meteohub,2013-01-21 02:40:00,
2013-01-20 20:45:00,1.2,27.5,30.37,West,275,6.0,11.0,24,-99.99,,,-99.99,meteohub,2013-01-21 02:45:00,
2013-01-20 20:50:00,1.2,27.5,30.37,WSW,245,8.0,9.0,24,-99.99,,,-99.99,meteohub,2013-01-21 02:50:00,
2013-01-20 20:56:00,1.2,27.5,30.37,West,278,6.0,11.0,24,-99.99,,,-99.99,meteohub,2013-01-21 02:56:00,
2013-01-20 21:01:00,1.0,27.5,30.37,West,272,5.0,11.0,24,-99.99,,,-99.99,meteohub,2013-01-21 03:01:00,
2013-01-20 21:06:00,0.9,27.3,30.37,WNW,293,10.0,11.0,24,-99.99,,,-99.99,meteohub,2013-01-21 03:06:00,
2013-01-20 21:12:00,0.7,27.3,30.37,WNW,283,8.0,15.0,24,-99.99,,,-99.99,meteohub,2013-01-21 03:12:00,
2013-01-20 21:17:00,0.7,27.1,30.37,NW,305,7.0,15.0,24,-99.99,,,-99.99,meteohub,2013-01-21 03:17:00,
2013-01-20 21:22:00,0.7,27.1,30.37,WNW,292,8.0,15.0,24,-99.99,,,-99.99,meteohub,2013-01-21 03:22:00,
2013-01-20 21:28:00,0.3,27.1,30.37,West,264,8.0,13.0,24,-99.99,,,-99.99,meteohub,2013-01-21 03:28:00,
2013-01-20 21:33:00,0.3,27.1,30.37,West,259,8.0,13.0,24,-99.99,,,-99.99,meteohub,2013-01-21 03:33:00,
2013-01-20 21:38:00,0.3,27.0,30.40,WNW,284,8.0,13.0,24,-99.99,,,-99.99,meteohub,2013-01-21 03:38:00,
2013-01-20 21:43:00,0.1,26.8,30.40,NW,317,13.0,13.0,24,-99.99,,,-99.99,meteohub,2013-01-21 03:43:00,
2013-01-20 21:48:00,0.0,26.8,30.40,West,279,11.0,13.0,24,-99.99,,,-99.99,meteohub,2013-01-21 03:48:00,
2013-01-20 21:54:00,0.0,27.0,30.37,West,263,6.0,13.0,24,-99.99,,,-99.99,meteohub,2013-01-21 03:54:00,
2013-01-20 21:59:00,-0.2,28.0,30.37,West,269,8.0,13.0,25,-99.99,,,-99.99,meteohub,2013-01-21 03:59:00,
2013-01-20 22:05:00,-0.4,28.2,30.40,WNW,287,9.0,13.0,25,-99.99,,,-99.99,meteohub,2013-01-21 04:05:00,
2013-01-20 22:10:00,-0.6,28.4,30.40,WNW,290,8.0,13.0,25,-99.99,,,-99.99,meteohub,2013-01-21 04:10:00,
2013-01-20 22:15:00,-0.8,28.4,30.40,WNW,287,10.0,13.0,25,-99.99,,,-99.99,meteohub,2013-01-21 04:15:00,
2013-01-20 22:20:00,-0.9,28.4,30.40,WSW,257,5.0,15.0,25,-99.99,,,-99.99,meteohub,2013-01-21 04:20:00,
2013-01-20 22:26:00,-0.9,27.5,30.40,WSW,254,4.0,15.0,24,-99.99,,,-99.99,meteohub,2013-01-21 04:26:00,
2013-01-20 22:31:00,-1.1,27.5,30.40,West,268,6.0,15.0,24,-99.99,,,-99.99,meteohub,2013-01-21 04:31:00,
2013-01-20 22:36:00,-1.3,27.7,30.40,West,265,8.0,17.0,24,-99.99,,,-99.99,meteohub,2013-01-21 04:36:00,
2013-01-20 22:41:00,-1.5,27.9,30.40,West,274,7.0,17.0,24,-99.99,,,-99.99,meteohub,2013-01-21 04:41:00,
2013-01-20 22:46:00,-1.7,27.9,30.40,WNW,283,8.0,17.0,24,-99.99,,,-99.99,meteohub,2013-01-21 04:46:00,
2013-01-20 22:52:00,-1.8,27.9,30.40,West,277,8.0,18.0,24,-99.99,,,-99.99,meteohub,2013-01-21 04:52:00,
2013-01-20 22:57:00,-2.0,28.0,30.40,West,269,5.0,18.0,24,-99.99,,,-99.99,meteohub,2013-01-21 04:57:00,
2013-01-20 23:00:00,-2.2,28.0,30.40,West,281,10.0,18.0,24,-99.99,,,-99.99,meteohub,2013-01-21 05:00:00,
2013-01-20 23:05:00,-2.2,28.0,30.40,WSW,258,5.0,18.0,24,-99.99,,,-99.99,meteohub,2013-01-21 05:05:00,
2013-01-20 23:06:00,-2.2,28.0,30.40,WNW,285,8.0,18.0,24,-99.99,,,-99.99,meteohub,2013-01-21 05:06:00,
2013-01-20 23:08:00,-2.2,28.0,30.40,West,269,8.0,18.0,24,-99.99,,,-99.99,meteohub,2013-01-21 05:08:00,
2013-01-20 23:11:00,-2.2,28.2,30.40,WNW,282,11.0,18.0,24,-99.99,,,-99.99,meteohub,2013-01-21 05:11:00,
2013-01-20 23:16:00,-2.4,28.2,30.40,WNW,285,8.0,15.0,24,-99.99,,,-99.99,meteohub,2013-01-21 05:16:00,
2013-01-20 23:21:00,-2.4,28.2,30.40,West,276,8.0,17.0,24,-99.99,,,-99.99,meteohub,2013-01-21 05:21:00,
2013-01-20 23:27:00,-2.4,28.4,30.40,WNW,295,6.0,17.0,24,-99.99,,,-99.99,meteohub,2013-01-21 05:27:00,
2013-01-20 23:33:00,-2.6,28.4,30.40,WNW,285,10.0,17.0,24,-99.99,,,-99.99,meteohub,2013-01-21 05:33:00,
2013-01-20 23:38:00,-2.6,28.4,30.40,West,277,6.0,14.0,24,-99.99,,,-99.99,meteohub,2013-01-21 05:38:00,
2013-01-20 23:43:00,-2.6,28.4,30.40,WNW,297,8.0,14.0,24,-99.99,,,-99.99,meteohub,2013-01-21 05:43:00,
2013-01-20 23:48:00,-2.7,28.4,30.40,NNW,331,10.0,14.0,24,-99.99,,,-99.99,meteohub,2013-01-21 05:48:00,
2013-01-20 23:53:00,-2.7,28.4,30.40,WNW,301,9.0,15.0,24,-99.99,,,-99.99,meteohub,2013-01-21 05:53:00,
2013-01-20 23:58:00,-2.9,28.4,30.40,WNW,291,4.0,15.0,24,-99.99,,,-99.99,meteohub,2013-01-21 05:58:00,